Time,TemperatureF,DewpointF,PressureIn,WindDirection,WindDirectionDegrees,WindSpeedMPH,WindSpeedGustMPH,Humidity,HourlyPrecipIn,Conditions,Clouds,dailyrainin,SoftwareType,DateUTC
2013-02-22 00:01:00,34.4,32.3,29.78,WNW,298,1.0,3.0,92,0.00,,,1.32,VWS V14.01,2013-02-22 06:01:00,
2013-02-22 00:10:00,34.4,32.3,29.78,WNW,298,1.0,3.0,92,0.00,,,0.00,VWS V14.01,2013-02-22 06:10:00,
2013-02-22 00:15:00,34.4,32.3,29.78,WNW,298,0.0,1.0,92,0.00,,,0.00,VWS V14.01,2013-02-22 06:15:00,
2013-02-22 00:20:00,34.4,32.3,29.78,WNW,298,0.0,1.0,92,0.00,,,0.00,VWS V14.01,2013-02-22 06:20:00,
2013-02-22 00:30:00,34.0,31.9,29.78,WNW,298,0.0,1.0,92,0.00,,,0.00,VWS V14.01,2013-02-22 06:30:00,
2013-02-22 00:40:00,33.8,31.7,29.78,WNW,298,2.0,3.0,92,0.00,,,0.00,VWS V14.01,2013-02-22 06:40:00,
2013-02-22 00:45:00,33.8,31.7,29.79,WNW,298,0.0,3.0,92,0.00,,,0.00,VWS V14.01,2013-02-22 06:45:00,
2013-02-22 00:50:00,33.8,31.7,29.79,WNW,298,1.0,2.0,92,0.00,,,0.00,VWS V14.01,2013-02-22 06:50:00,
2013-02-22 00:55:00,34.1,32.0,29.79,SW,235,1.0,5.0,92,0.00,,,0.00,VWS V14.01,2013-02-22 06:55:00,
2013-02-22 01:00:00,34.6,32.5,29.80,SW,221,2.0,5.0,92,0.00,,,0.00,VWS V14.01,2013-02-22 07:00:00,
2013-02-22 01:10:00,35.2,33.1,29.80,SW,221,3.0,6.0,92,0.00,,,0.00,VWS V14.01,2013-02-22 07:10:00,
2013-02-22 01:15:00,35.3,33.2,29.81,WSW,237,4.0,6.0,92,0.00,,,0.00,VWS V14.01,2013-02-22 07:15:00,
2013-02-22 01:20:00,35.5,33.4,29.81,WSW,238,2.0,8.0,92,0.00,,,0.00,VWS V14.01,2013-02-22 07:20:00,
2013-02-22 01:30:00,35.5,33.4,29.80,SW,214,3.0,7.0,92,0.00,,,0.00,VWS V14.01,2013-02-22 07:30:00,
2013-02-22 01:35:00,35.5,33.4,29.80,SW,231,5.0,8.0,92,0.00,,,0.00,VWS V14.01,2013-02-22 07:35:00,
2013-02-22 01:45:00,35.2,33.1,29.80,SSW,211,7.0,8.0,92,0.00,,,0.00,VWS V14.01,2013-02-22 07:45:00,
2013-02-22 01:50:00,35.2,33.1,29.80,SW,214,3.0,7.0,92,0.00,,,0.00,VWS V14.01,2013-02-22 07:50:00,
2013-02-22 01:55:00,35.0,32.9,29.80,SSW,212,5.0,8.0,92,0.00,,,0.00,VWS V14.01,2013-02-22 07:55:00,
2013-02-22 02:05:00,34.6,32.5,29.80,SW,221,4.0,9.0,92,0.00,,,0.00,VWS V14.01,2013-02-22 08:05:00,
2013-02-22 02:10:00,34.4,32.3,29.80,SW,229,4.0,9.0,92,0.00,,,0.00,VWS V14.01,2013-02-22 08:10:00,
2013-02-22 02:20:00,34.3,32.2,29.82,SSW,208,3.0,8.0,92,0.00,,,0.00,VWS V14.01,2013-02-22 08:20:00,
2013-02-22 02:25:00,34.3,32.2,29.82,SW,235,6.0,8.0,92,0.00,,,0.00,VWS V14.01,2013-02-22 08:25:00,
2013-02-22 02:30:00,34.1,32.0,29.82,SW,218,5.0,8.0,92,0.00,,,0.00,VWS V14.01,2013-02-22 08:30:00,
2013-02-22 02:35:00,34.1,32.0,29.82,SW,225,4.0,8.0,92,0.00,,,0.00,VWS V14.01,2013-02-22 08:35:00,
2013-02-22 02:40:00,34.0,31.9,29.82,SW,230,3.0,10.0,92,0.00,,,0.00,VWS V14.01,2013-02-22 08:40:00,
2013-02-22 02:50:00,33.8,31.7,29.82,WSW,246,4.0,7.0,92,0.00,,,0.00,VWS V14.01,2013-02-22 08:50:00,
2013-02-22 02:55:00,33.7,31.6,29.82,SW,230,8.0,9.0,92,0.00,,,0.00,VWS V14.01,2013-02-22 08:55:00,
2013-02-22 03:00:00,33.5,31.4,29.83,SW,236,4.0,9.0,92,0.00,,,0.00,VWS V14.01,2013-02-22 09:00:00,
2013-02-22 03:10:00,33.5,31.7,29.83,SW,219,4.0,9.0,93,0.00,,,0.00,VWS V14.01,2013-02-22 09:10:00,
2013-02-22 03:15:00,33.4,31.6,29.83,WSW,239,4.0,7.0,93,0.00,,,0.00,VWS V14.01,2013-02-22 09:15:00,
2013-02-22 03:25:00,33.4,31.6,29.83,SW,222,3.0,8.0,93,0.00,,,0.00,VWS V14.01,2013-02-22 09:25:00,
2013-02-22 03:35:00,33.5,31.7,29.85,WSW,246,3.0,7.0,93,0.00,,,0.00,VWS V14.01,2013-02-22 09:35:00,
2013-02-22 03:40:00,33.5,31.7,29.85,SW,224,7.0,10.0,93,0.00,,,0.00,VWS V14.01,2013-02-22 09:40:00,
2013-02-22 03:45:00,33.4,31.6,29.86,SW,229,5.0,7.0,93,0.00,,,0.00,VWS V14.01,2013-02-22 09:45:00,
2013-02-22 03:50:00,33.4,31.6,29.86,WSW,244,6.0,9.0,93,0.00,,,0.00,VWS V14.01,2013-02-22 09:50:00,
2013-02-22 04:00:00,33.5,31.7,29.87,WSW,242,5.0,7.0,93,0.00,,,0.00,VWS V14.01,2013-02-22 10:00:00,
2013-02-22 04:10:00,33.2,31.4,29.87,SW,221,5.0,11.0,93,0.00,,,0.00,VWS V14.01,2013-02-22 10:10:00,
2013-02-22 04:15:00,33.2,31.4,29.88,SW,220,4.0,9.0,93,0.00,,,0.00,VWS V14.01,2013-02-22 10:15:00,
2013-02-22 04:25:00,33.1,31.3,29.88,WSW,255,4.0,8.0,93,0.00,,,0.00,VWS V14.01,2013-02-22 10:25:00,
2013-02-22 04:35:00,33.1,31.3,29.88,SW,225,2.0,4.0,93,0.00,,,0.00,VWS V14.01,2013-02-22 10:35:00,
2013-02-22 04:40:00,33.1,31.3,29.88,WSW,257,2.0,5.0,93,0.00,,,0.00,VWS V14.01,2013-02-22 10:40:00,
2013-02-22 04:50:00,33.2,31.4,29.88,WNW,284,2.0,6.0,93,0.00,,,0.00,VWS V14.01,2013-02-22 10:50:00,
2013-02-22 04:55:00,33.1,31.3,29.88,West,265,1.0,5.0,93,0.00,,,0.00,VWS V14.01,2013-02-22 10:55:00,
2013-02-22 05:05:00,33.1,31.3,29.89,WSW,242,3.0,6.0,93,0.00,,,0.00,VWS V14.01,2013-02-22 11:05:00,
2013-02-22 05:10:00,33.1,31.3,29.89,SW,218,3.0,5.0,93,0.00,,,0.00,VWS V14.01,2013-02-22 11:10:00,
2013-02-22 05:15:00,33.2,31.4,29.89,WSW,243,4.0,4.0,93,0.00,,,0.00,VWS V14.01,2013-02-22 11:15:00,
2013-02-22 05:25:00,33.1,31.3,29.89,SW,236,2.0,6.0,93,0.00,,,0.00,VWS V14.01,2013-02-22 11:25:00,
2013-02-22 05:30:00,33.1,31.3,29.89,WSW,240,5.0,5.0,93,0.00,,,0.00,VWS V14.01,2013-02-22 11:30:00,
2013-02-22 05:35:00,33.1,31.3,29.89,SW,217,2.0,6.0,93,0.00,,,0.00,VWS V14.01,2013-02-22 11:35:00,
2013-02-22 05:45:00,33.2,31.4,29.90,SW,216,0.0,3.0,93,0.00,,,0.00,VWS V14.01,2013-02-22 11:45:00,
2013-02-22 05:50:00,33.2,31.4,29.90,SW,221,0.0,5.0,93,0.00,,,0.00,VWS V14.01,2013-02-22 11:50:00,
2013-02-22 05:55:00,33.2,31.4,29.90,SW,225,0.0,7.0,93,0.00,,,0.00,VWS V14.01,2013-02-22 11:55:00,
2013-02-22 06:05:00,33.2,31.4,29.90,WSW,243,0.0,5.0,93,0.00,,,0.00,VWS V14.01,2013-02-22 12:05:00,
2013-02-22 06:15:00,33.2,31.4,29.90,SW,218,3.0,5.0,93,0.00,,,0.00,VWS V14.01,2013-02-22 12:15:00,
2013-02-22 06:25:00,33.1,31.3,29.90,SSW,213,2.0,5.0,93,0.00,,,0.00,VWS V14.01,2013-02-22 12:25:00,
2013-02-22 06:35:00,33.1,31.3,29.90,SW,236,1.0,6.0,93,0.00,,,0.00,VWS V14.01,2013-02-22 12:35:00,
2013-02-22 06:40:00,33.1,31.3,29.90,SW,217,3.0,5.0,93,0.00,,,0.00,VWS V14.01,2013-02-22 12:40:00,
2013-02-22 06:50:00,33.1,31.3,29.91,SW,217,1.0,5.0,93,0.00,,,0.00,VWS V14.01,2013-02-22 12:50:00,
2013-02-22 07:00:00,33.1,31.3,29.92,SW,217,0.0,6.0,93,0.00,,,0.00,VWS V14.01,2013-02-22 13:00:00,
2013-02-22 07:10:00,33.2,31.4,29.92,South,183,2.0,4.0,93,0.00,,,0.00,VWS V14.01,2013-02-22 13:10:00,
2013-02-22 07:20:00,33.5,31.7,29.93,SW,217,0.0,5.0,93,0.00,,,0.00,VWS V14.01,2013-02-22 13:20:00,
2013-02-22 07:25:00,33.7,31.9,29.93,SW,223,3.0,6.0,93,0.00,,,0.00,VWS V14.01,2013-02-22 13:25:00,
2013-02-22 07:35:00,33.7,31.9,29.93,SW,235,0.0,6.0,93,0.00,,OVC023,0.00,VWS V14.01,2013-02-22 13:35:00,
2013-02-22 07:40:00,33.8,32.0,29.93,SW,234,4.0,5.0,93,0.00,,OVC023,0.00,VWS V14.01,2013-02-22 13:40:00,
2013-02-22 07:45:00,33.8,32.0,29.94,SW,227,0.0,5.0,93,0.00,,OVC023,0.00,VWS V14.01,2013-02-22 13:45:00,
2013-02-22 07:55:00,34.1,32.3,29.94,SW,218,4.0,6.0,93,0.00,,OVC023,0.00,VWS V14.01,2013-02-22 13:55:00,
2013-02-22 08:00:00,34.3,32.5,29.95,SW,222,4.0,6.0,93,0.00,,OVC023,0.00,VWS V14.01,2013-02-22 14:00:00,
2013-02-22 08:05:00,34.4,32.6,29.95,SW,226,2.0,5.0,93,0.00,,OVC023,0.00,VWS V14.01,2013-02-22 14:05:00,
2013-02-22 08:10:00,34.7,32.9,29.95,SW,226,0.0,2.0,93,0.00,,OVC023,0.00,VWS V14.01,2013-02-22 14:10:00,
2013-02-22 08:20:00,34.9,33.1,29.96,SW,233,4.0,7.0,93,0.00,,OVC023,0.00,VWS V14.01,2013-02-22 14:20:00,
2013-02-22 08:30:00,35.0,33.2,29.97,SW,215,6.0,6.0,93,0.00,,OVC023,0.00,VWS V14.01,2013-02-22 14:30:00,
2013-02-22 08:35:00,35.2,33.4,29.97,South,182,2.0,7.0,93,0.00,,,0.00,VWS V14.01,2013-02-22 14:35:00,
2013-02-22 08:40:00,35.3,33.5,29.97,SSW,200,2.0,4.0,93,0.00,,,0.00,VWS V14.01,2013-02-22 14:40:00,
2013-02-22 08:50:00,35.3,33.5,29.97,SW,221,6.0,7.0,93,0.00,,,0.00,VWS V14.01,2013-02-22 14:50:00,
2013-02-22 08:55:00,35.5,33.7,29.97,SW,227,4.0,7.0,93,0.00,,,0.00,VWS V14.01,2013-02-22 14:55:00,
2013-02-22 09:00:00,35.6,33.8,29.98,SSW,206,4.0,6.0,93,0.00,,,0.00,VWS V14.01,2013-02-22 15:00:00,
2013-02-22 09:05:00,35.8,34.0,29.98,SW,229,4.0,7.0,93,0.00,,,0.00,VWS V14.01,2013-02-22 15:05:00,
2013-02-22 09:15:00,36.0,34.2,29.98,SW,219,5.0,9.0,93,0.00,,,0.00,VWS V14.01,2013-02-22 15:15:00,
2013-02-22 09:20:00,36.2,34.4,29.98,SSW,210,4.0,8.0,93,0.00,,,0.00,VWS V14.01,2013-02-22 15:20:00,
2013-02-22 09:30:00,36.6,34.8,29.98,SSW,196,3.0,10.0,93,0.00,,,0.00,VWS V14.01,2013-02-22 15:30:00,
2013-02-22 09:35:00,36.8,35.0,29.98,SSW,207,2.0,6.0,93,0.00,,SCT028,0.00,VWS V14.01,2013-02-22 15:35:00,
2013-02-22 09:46:00,37.0,35.2,29.98,SW,224,5.0,9.0,93,0.00,,SCT028,0.00,VWS V14.01,2013-02-22 15:46:00,
2013-02-22 09:51:00,37.2,35.4,29.98,SSW,209,8.0,11.0,93,0.00,,SCT028,0.00,VWS V14.01,2013-02-22 15:51:00,
2013-02-22 10:00:00,38.0,36.2,29.98,SW,234,9.0,9.0,93,0.00,,SCT028,0.00,VWS V14.01,2013-02-22 16:00:00,
2013-02-22 10:10:00,39.1,37.0,29.98,SW,219,7.0,8.0,92,0.00,,SCT028,0.00,VWS V14.01,2013-02-22 16:10:00,
2013-02-22 10:15:00,39.3,36.9,29.98,West,262,7.0,11.0,91,0.00,,SCT028,0.00,VWS V14.01,2013-02-22 16:15:00,
2013-02-22 10:20:00,39.8,36.8,29.98,SW,221,9.0,10.0,89,0.00,,SCT028,0.00,VWS V14.01,2013-02-22 16:20:00,
2013-02-22 10:25:00,39.9,36.6,29.98,SW,230,4.0,10.0,88,0.00,,SCT028,0.00,VWS V14.01,2013-02-22 16:25:00,
2013-02-22 10:30:00,40.2,36.3,29.99,SW,224,6.0,10.0,86,0.00,,SCT028,0.00,VWS V14.01,2013-02-22 16:30:00,
2013-02-22 10:40:00,41.5,37.0,29.99,SW,236,6.0,9.0,84,0.00,,BKN006,0.00,VWS V14.01,2013-02-22 16:40:00,
2013-02-22 10:50:00,42.6,37.2,29.99,SW,217,3.0,10.0,81,0.00,,BKN006,0.00,VWS V14.01,2013-02-22 16:50:00,
2013-02-22 10:55:00,42.3,36.3,29.99,SW,232,4.0,10.0,79,0.00,,BKN006,0.00,VWS V14.01,2013-02-22 16:55:00,
2013-02-22 11:00:00,42.2,36.5,29.99,SW,221,1.0,9.0,80,0.00,,BKN006,0.00,VWS V14.01,2013-02-22 17:00:00,
2013-02-22 11:05:00,41.9,35.9,29.99,SW,230,9.0,9.0,79,0.00,,BKN006,0.00,VWS V14.01,2013-02-22 17:05:00,
2013-02-22 11:15:00,42.2,36.2,29.98,SW,223,9.0,9.0,79,0.00,,BKN006,0.00,VWS V14.01,2013-02-22 17:15:00,
2013-02-22 11:20:00,42.3,35.9,29.98,SSW,201,4.0,9.0,78,0.00,,BKN006,0.00,VWS V14.01,2013-02-22 17:20:00,
2013-02-22 11:30:00,42.8,36.1,29.98,SSW,211,6.0,9.0,77,0.00,,BKN006,0.00,VWS V14.01,2013-02-22 17:30:00,
2013-02-22 11:40:00,42.9,35.5,29.98,SSW,202,3.0,9.0,75,0.00,,OVC011,0.00,VWS V14.01,2013-02-22 17:40:00,
2013-02-22 11:45:00,43.2,36.5,29.97,SW,226,2.0,9.0,77,0.00,,OVC011,0.00,VWS V14.01,2013-02-22 17:45:00,
2013-02-22 11:56:00,43.8,36.7,29.97,SW,227,3.0,9.0,76,0.00,,OVC011,0.00,VWS V14.01,2013-02-22 17:56:00,
2013-02-22 12:05:00,43.8,36.4,29.97,WSW,240,4.0,12.0,75,0.00,,BKN023,0.00,VWS V14.01,2013-02-22 18:05:00,
2013-02-22 12:10:00,43.6,35.9,29.97,WSW,249,6.0,9.0,74,0.00,,BKN023,0.00,VWS V14.01,2013-02-22 18:10:00,
2013-02-22 12:15:00,43.8,36.7,29.97,WSW,253,8.0,11.0,76,0.00,,BKN023,0.00,VWS V14.01,2013-02-22 18:15:00,
2013-02-22 12:25:00,43.8,35.0,29.97,SW,217,3.0,11.0,71,0.00,,BKN023,0.00,VWS V14.01,2013-02-22 18:25:00,
2013-02-22 12:30:00,43.9,36.2,29.97,WSW,244,1.0,10.0,74,0.00,,BKN023,0.00,VWS V14.01,2013-02-22 18:30:00,
2013-02-22 12:40:00,43.8,35.7,29.97,SW,219,7.0,11.0,73,0.00,,SCT022,0.00,VWS V14.01,2013-02-22 18:40:00,
2013-02-22 12:45:00,43.6,35.9,29.97,West,271,8.0,10.0,74,0.00,,SCT022,0.00,VWS V14.01,2013-02-22 18:45:00,
2013-02-22 12:50:00,43.3,35.9,29.97,West,279,7.0,11.0,75,0.00,,SCT022,0.00,VWS V14.01,2013-02-22 18:50:00,
2013-02-22 13:01:00,43.3,35.9,29.97,WSW,243,6.0,11.0,75,0.00,,SCT022,0.00,VWS V14.01,2013-02-22 19:01:00,
2013-02-22 13:10:00,43.8,36.7,29.97,West,262,8.0,9.0,76,0.00,,SCT022,0.00,VWS V14.01,2013-02-22 19:10:00,
2013-02-22 13:20:00,43.1,36.1,29.96,West,266,2.0,8.0,76,0.00,,SCT022,0.00,VWS V14.01,2013-02-22 19:20:00,
2013-02-22 13:25:00,43.1,35.7,29.96,WNW,286,5.0,10.0,75,0.00,,SCT022,0.00,VWS V14.01,2013-02-22 19:25:00,
2013-02-22 13:35:00,42.9,35.9,29.96,West,268,4.0,9.0,76,0.00,,SCT022,0.00,VWS V14.01,2013-02-22 19:35:00,
2013-02-22 13:45:00,43.1,35.7,29.96,SW,227,4.0,9.0,75,0.00,,SCT022,0.00,VWS V14.01,2013-02-22 19:45:00,
2013-02-22 13:50:00,43.3,35.6,29.96,West,273,5.0,10.0,74,0.00,,SCT022,0.00,VWS V14.01,2013-02-22 19:50:00,
2013-02-22 13:55:00,43.1,34.7,29.96,WSW,248,5.0,12.0,72,0.00,,SCT022,0.00,VWS V14.01,2013-02-22 19:55:00,
2013-02-22 14:00:00,43.6,35.9,29.95,SW,217,9.0,9.0,74,0.00,,SCT022,0.00,VWS V14.01,2013-02-22 20:00:00,
2013-02-22 14:10:00,43.6,35.2,29.95,West,263,8.0,9.0,72,0.00,,BKN025,0.00,VWS V14.01,2013-02-22 20:10:00,
2013-02-22 14:20:00,44.2,33.6,29.95,SW,234,6.0,9.0,66,0.00,,BKN025,0.00,VWS V14.01,2013-02-22 20:20:00,
2013-02-22 14:25:00,44.2,34.7,29.95,WSW,247,5.0,8.0,69,0.00,,BKN025,0.00,VWS V14.01,2013-02-22 20:25:00,
2013-02-22 14:30:00,44.5,34.6,29.95,West,272,5.0,8.0,68,0.00,,BKN025,0.00,VWS V14.01,2013-02-22 20:30:00,
2013-02-22 14:35:00,44.5,34.2,29.95,West,272,3.0,10.0,67,0.00,,SCT025,0.00,VWS V14.01,2013-02-22 20:35:00,
2013-02-22 14:41:00,44.6,35.1,29.95,West,273,5.0,8.0,69,0.00,,SCT025,0.00,VWS V14.01,2013-02-22 20:41:00,
2013-02-22 14:50:00,44.8,34.5,29.94,West,259,4.0,9.0,67,0.00,,SCT025,0.00,VWS V14.01,2013-02-22 20:50:00,
2013-02-22 14:55:00,45.1,35.2,29.94,WSW,252,7.0,9.0,68,0.00,,SCT025,0.00,VWS V14.01,2013-02-22 20:55:00,
2013-02-22 15:00:00,45.1,35.2,29.94,West,269,6.0,11.0,68,0.00,,SCT025,0.00,VWS V14.01,2013-02-22 21:00:00,
2013-02-22 15:10:00,45.2,35.7,29.94,WSW,256,6.0,14.0,69,0.00,,SCT025,0.00,VWS V14.01,2013-02-22 21:10:00,
2013-02-22 15:20:00,44.5,34.6,29.94,West,278,8.0,12.0,68,0.00,,SCT025,0.00,VWS V14.01,2013-02-22 21:20:00,
2013-02-22 15:25:00,44.5,35.0,29.94,WSW,250,9.0,11.0,69,0.00,,SCT025,0.00,VWS V14.01,2013-02-22 21:25:00,
2013-02-22 15:30:00,44.2,34.0,29.94,WNW,284,3.0,11.0,67,0.00,,SCT025,0.00,VWS V14.01,2013-02-22 21:30:00,
2013-02-22 15:35:00,44.2,34.3,29.94,WSW,244,6.0,10.0,68,0.00,,SCT025,0.00,VWS V14.01,2013-02-22 21:35:00,
2013-02-22 15:40:00,44.2,34.0,29.94,NW,321,3.0,11.0,67,0.00,,SCT025,0.00,VWS V14.01,2013-02-22 21:40:00,
2013-02-22 15:50:00,43.8,32.8,29.94,WNW,298,3.0,11.0,65,0.00,,SCT025,0.00,VWS V14.01,2013-02-22 21:50:00,
2013-02-22 15:55:00,43.8,33.6,29.94,West,278,9.0,11.0,67,0.00,,SCT025,0.00,VWS V14.01,2013-02-22 21:55:00,
2013-02-22 16:05:00,43.3,32.3,29.94,West,269,10.0,13.0,65,0.00,,SCT025,0.00,VWS V14.01,2013-02-22 22:05:00,
2013-02-22 16:10:00,43.3,32.0,29.94,WNW,294,3.0,10.0,64,0.00,,SCT025,0.00,VWS V14.01,2013-02-22 22:10:00,
2013-02-22 16:20:00,43.2,33.0,29.95,WNW,286,5.0,7.0,67,0.00,,SCT025,0.00,VWS V14.01,2013-02-22 22:20:00,
2013-02-22 16:25:00,43.3,33.5,29.95,WNW,284,4.0,7.0,68,0.00,,SCT025,0.00,VWS V14.01,2013-02-22 22:25:00,
2013-02-22 16:35:00,43.2,32.6,29.95,WSW,256,7.0,10.0,66,0.00,,FEW027,0.00,VWS V14.01,2013-02-22 22:35:00,
2013-02-22 16:40:00,42.6,32.8,29.95,West,260,4.0,7.0,68,0.00,,FEW027,0.00,VWS V14.01,2013-02-22 22:40:00,
2013-02-22 16:46:00,42.5,32.7,29.95,WSW,257,6.0,8.0,68,0.00,,FEW027,0.00,VWS V14.01,2013-02-22 22:46:00,
2013-02-22 16:55:00,42.1,32.3,29.95,West,269,6.0,9.0,68,0.00,,FEW027,0.00,VWS V14.01,2013-02-22 22:55:00,
2013-02-22 17:05:00,42.2,32.4,29.95,West,279,3.0,7.0,68,0.00,,FEW027,0.00,VWS V14.01,2013-02-22 23:05:00,
2013-02-22 17:10:00,42.2,32.4,29.95,WNW,282,6.0,8.0,68,0.00,,FEW027,0.00,VWS V14.01,2013-02-22 23:10:00,
2013-02-22 17:20:00,41.5,31.4,29.96,WNW,284,5.0,9.0,67,0.00,,FEW027,0.00,VWS V14.01,2013-02-22 23:20:00,
2013-02-22 17:25:00,41.3,31.5,29.96,West,275,3.0,7.0,68,0.00,,FEW027,0.00,VWS V14.01,2013-02-22 23:25:00,
2013-02-22 17:30:00,41.1,31.4,29.97,WNW,292,2.0,7.0,68,0.00,,FEW027,0.00,VWS V14.01,2013-02-22 23:30:00,
2013-02-22 17:35:00,40.8,31.1,29.97,WNW,287,3.0,7.0,68,0.00,,BKN025,0.00,VWS V14.01,2013-02-22 23:35:00,
2013-02-22 17:40:00,40.5,31.1,29.97,West,264,4.0,7.0,69,0.00,,BKN025,0.00,VWS V14.01,2013-02-22 23:40:00,
2013-02-22 17:45:00,40.3,31.3,29.97,WNW,289,3.0,5.0,70,0.00,,BKN025,0.00,VWS V14.01,2013-02-22 23:45:00,
2013-02-22 17:50:00,40.1,31.8,29.97,WNW,285,1.0,4.0,72,0.00,,BKN025,0.00,VWS V14.01,2013-02-22 23:50:00,
2013-02-22 17:55:00,39.9,31.3,29.97,WNW,283,2.0,3.0,71,0.00,,BKN025,0.00,VWS V14.01,2013-02-22 23:55:00,
2013-02-22 18:05:00,39.9,31.6,29.98,WNW,296,2.0,3.0,72,0.00,,FEW025,0.00,VWS V14.01,2013-02-23 00:05:00,
2013-02-22 18:15:00,39.8,31.5,29.98,NW,313,1.0,4.0,72,0.00,,FEW025,0.00,VWS V14.01,2013-02-23 00:15:00,
2013-02-22 18:20:00,39.6,31.0,29.98,NW,305,1.0,3.0,71,0.00,,FEW025,0.00,VWS V14.01,2013-02-23 00:20:00,
2013-02-22 18:25:00,39.6,31.3,29.98,NW,306,3.0,3.0,72,0.00,,FEW025,0.00,VWS V14.01,2013-02-23 00:25:00,
2013-02-22 18:30:00,39.3,31.0,29.99,NW,313,1.0,4.0,72,0.00,,FEW025,0.00,VWS V14.01,2013-02-23 00:30:00,
2013-02-22 18:40:00,39.1,31.2,29.99,WNW,302,5.0,8.0,73,0.00,,FEW025,0.00,VWS V14.01,2013-02-23 00:40:00,
2013-02-22 18:51:00,38.6,31.0,29.99,WNW,298,1.0,6.0,74,0.00,,FEW025,0.00,VWS V14.01,2013-02-23 00:51:00,
2013-02-22 19:00:00,38.0,29.8,30.00,NW,309,2.0,9.0,72,0.00,,FEW025,0.00,VWS V14.01,2013-02-23 01:00:00,
2013-02-22 19:05:00,37.8,29.3,30.00,NNW,330,9.0,9.0,71,0.00,,BKN025,0.00,VWS V14.01,2013-02-23 01:05:00,
2013-02-22 19:10:00,37.5,29.0,30.00,WNW,300,1.0,10.0,71,0.00,,BKN025,0.00,VWS V14.01,2013-02-23 01:10:00,
2013-02-22 19:20:00,37.0,28.8,30.00,NW,323,2.0,5.0,72,0.00,,BKN025,0.00,VWS V14.01,2013-02-23 01:20:00,
2013-02-22 19:25:00,36.9,29.1,30.00,NW,325,4.0,8.0,73,0.00,,BKN025,0.00,VWS V14.01,2013-02-23 01:25:00,
2013-02-22 19:30:00,36.6,29.1,30.02,NW,319,1.0,6.0,74,0.00,,BKN025,0.00,VWS V14.01,2013-02-23 01:30:00,
2013-02-22 19:35:00,36.5,29.0,30.02,NW,319,5.0,7.0,74,0.00,,BKN025,0.00,VWS V14.01,2013-02-23 01:35:00,
2013-02-22 19:40:00,36.3,28.8,30.02,NW,304,3.0,5.0,74,0.00,,BKN025,0.00,VWS V14.01,2013-02-23 01:40:00,
2013-02-22 19:50:00,35.9,28.8,30.02,NW,326,2.0,5.0,75,0.00,,BKN025,0.00,VWS V14.01,2013-02-23 01:50:00,
2013-02-22 19:56:00,35.6,28.5,30.02,NW,304,1.0,5.0,75,0.00,,BKN025,0.00,VWS V14.01,2013-02-23 01:56:00,
2013-02-22 20:05:00,35.3,28.5,30.02,NW,308,3.0,4.0,76,0.00,,SCT025,0.00,VWS V14.01,2013-02-23 02:05:00,
2013-02-22 20:10:00,35.2,28.1,30.02,NW,308,2.0,4.0,75,0.00,,SCT025,0.00,VWS V14.01,2013-02-23 02:10:00,
2013-02-22 20:20:00,35.0,27.9,30.03,WNW,298,1.0,4.0,75,0.00,,SCT025,0.00,VWS V14.01,2013-02-23 02:20:00,
2013-02-22 20:30:00,34.7,27.6,30.03,WNW,302,1.0,3.0,75,0.00,,SCT025,0.00,VWS V14.01,2013-02-23 02:30:00,
2013-02-22 20:35:00,34.7,27.9,30.03,WNW,302,1.0,3.0,76,0.00,,CLR,0.00,VWS V14.01,2013-02-23 02:35:00,
2013-02-22 20:40:00,34.7,27.9,30.03,WNW,302,0.0,3.0,76,0.00,,CLR,0.00,VWS V14.01,2013-02-23 02:40:00,
2013-02-22 20:45:00,34.7,27.9,30.02,WNW,302,1.0,3.0,76,0.00,,CLR,0.00,VWS V14.01,2013-02-23 02:45:00,
2013-02-22 20:55:00,34.6,28.1,30.02,WNW,302,1.0,3.0,77,0.00,,CLR,0.00,VWS V14.01,2013-02-23 02:55:00,
2013-02-22 21:00:00,34.4,28.0,30.03,WNW,302,2.0,2.0,77,0.00,,CLR,0.00,VWS V14.01,2013-02-23 03:00:00,
2013-02-22 21:05:00,34.4,28.3,30.03,WNW,302,2.0,4.0,78,0.00,,CLR,0.00,VWS V14.01,2013-02-23 03:05:00,
2013-02-22 21:15:00,34.3,27.9,30.03,NW,324,2.0,4.0,77,0.00,,CLR,0.00,VWS V14.01,2013-02-23 03:15:00,
2013-02-22 21:25:00,34.4,28.0,30.03,NW,323,1.0,4.0,77,0.00,,CLR,0.00,VWS V14.01,2013-02-23 03:25:00,
2013-02-22 21:30:00,34.3,27.9,30.03,NNW,338,3.0,4.0,77,0.00,,CLR,0.00,VWS V14.01,2013-02-23 03:30:00,
2013-02-22 21:40:00,34.3,27.9,30.03,NW,325,1.0,4.0,77,0.00,,BKN024,0.00,VWS V14.01,2013-02-23 03:40:00,
2013-02-22 21:45:00,34.1,27.7,30.04,NW,325,1.0,4.0,77,0.00,,BKN024,0.00,VWS V14.01,2013-02-23 03:45:00,
2013-02-22 21:55:00,34.3,27.9,30.04,NW,325,2.0,3.0,77,0.00,,BKN024,0.00,VWS V14.01,2013-02-23 03:55:00,
2013-02-22 22:00:00,34.1,27.7,30.03,NW,325,1.0,2.0,77,0.00,,BKN024,0.00,VWS V14.01,2013-02-23 04:00:00,
2013-02-22 22:05:00,34.0,27.9,30.03,NW,325,1.0,2.0,78,0.00,,SCT024,0.00,VWS V14.01,2013-02-23 04:05:00,
2013-02-22 22:15:00,33.8,28.0,30.03,NW,325,0.0,3.0,79,0.00,,SCT024,0.00,VWS V14.01,2013-02-23 04:15:00,
2013-02-22 22:20:00,34.0,27.9,30.03,NW,313,1.0,5.0,78,0.00,,SCT024,0.00,VWS V14.01,2013-02-23 04:20:00,
2013-02-22 22:30:00,34.0,27.9,30.03,NW,312,2.0,3.0,78,0.00,,SCT024,0.00,VWS V14.01,2013-02-23 04:30:00,
2013-02-22 22:35:00,34.0,27.9,30.03,NW,312,2.0,3.0,78,0.00,,CLR,0.00,VWS V14.01,2013-02-23 04:35:00,
2013-02-22 22:40:00,34.0,27.9,30.03,NW,312,0.0,2.0,78,0.00,,CLR,0.00,VWS V14.01,2013-02-23 04:40:00,
2013-02-22 22:45:00,34.0,28.2,30.03,NW,312,2.0,3.0,79,0.00,,CLR,0.00,VWS V14.01,2013-02-23 04:45:00,
2013-02-22 22:50:00,34.1,28.0,30.03,NW,319,2.0,4.0,78,0.00,,CLR,0.00,VWS V14.01,2013-02-23 04:50:00,
2013-02-22 22:55:00,34.0,27.9,30.03,NW,313,2.0,3.0,78,0.00,,CLR,0.00,VWS V14.01,2013-02-23 04:55:00,
2013-02-22 23:00:00,33.8,27.7,30.03,NW,313,3.0,3.0,78,0.00,,CLR,0.00,VWS V14.01,2013-02-23 05:00:00,
2013-02-22 23:05:00,33.8,27.7,30.03,NW,323,3.0,5.0,78,0.00,,CLR,0.00,VWS V14.01,2013-02-23 05:05:00,
2013-02-22 23:10:00,33.8,27.7,30.03,WNW,282,3.0,6.0,78,0.00,,CLR,0.00,VWS V14.01,2013-02-23 05:10:00,
2013-02-22 23:20:00,33.7,27.6,30.02,NW,309,2.0,5.0,78,0.00,,CLR,0.00,VWS V14.01,2013-02-23 05:20:00,
2013-02-22 23:25:00,33.5,27.4,30.02,NNW,327,2.0,4.0,78,0.00,,CLR,0.00,VWS V14.01,2013-02-23 05:25:00,
2013-02-22 23:30:00,33.4,27.3,30.02,NW,325,2.0,4.0,78,0.00,,CLR,0.00,VWS V14.01,2013-02-23 05:30:00,
2013-02-22 23:35:00,33.2,27.4,30.02,WNW,297,3.0,4.0,79,0.00,,CLR,0.00,VWS V14.01,2013-02-23 05:35:00,
2013-02-22 23:40:00,33.1,27.3,30.02,NW,311,2.0,5.0,79,0.00,,CLR,0.00,VWS V14.01,2013-02-23 05:40:00,
2013-02-22 23:45:00,32.9,27.4,30.02,NW,311,2.0,3.0,80,0.00,,CLR,0.00,VWS V14.01,2013-02-23 05:45:00,
2013-02-22 23:55:00,32.9,27.4,30.02,NW,313,0.0,4.0,80,0.00,,CLR,0.00,VWS V14.01,2013-02-23 05:55:00,